Location: Eaglesham
(55.7833°N, 117.9000°W)
Time: 18:25:29
(UTC+00:00)

ISS - Pass Details

Date: 02 December 2021
Orbit: 413 x 422 km, 51.6° (Epoch: 23 January)

Event Time Altitude Azimuth Distance (km) Brightness Sun altitude
Rises 01:18:56 0° 266° (W) 2,385 1.7 -15.0°
Reaches altitude 10° 01:21:07 10° 258° (WSW) 1,517 0.5 -15.3°
Maximum altitude 01:24:18 37° 189° (S) 672 -2.5 -15.8°
Enters shadow 01:26:10 20° 133° (SE) 1,041 -2.1 -16.0°
